Temperature
18 18 18 18 18 18 18 18 18 18 18 18 18 18 18 18 18 18 18 18 18 18 18 18 18 18 18 18 18 18 18 17 17 17 17 17 17 17 17 17 17 17 17
18 18 18 18 18 18 18 18 18 18 18 18 18 18 18 18 18 18 18 18 18 18 18 18 18 18 18 18 18 18 18 18 17 17 17 17 17 17 17 17 17 17 17
18 18 18 18 18 18 18 18 18 18 18 18 18 18 18 18 18 18 18 18 18 18 18 18 18 18 18 18 18 18 18 17 17 17 17 17 17 17 17 17 17 17 16
18 18 18 18 18 18 18 18 18 18 18 18 18 18 18 18 18 18 18 18 18 18 18 18 18 18 18 18 18 17 17 17 17 17 17 17 17 17 17 17 17 17 16
18 18 18 18 18 18 18 18 18 18 18 18 18 18 18 18 18 18 18 18 18 18 18 18 18 18 18 18 18 17 17 17 17 17 17 17 17 17 17 17 17 17 16
17 18 17 18 18 17 18 18 18 18 18 18 18 18 18 18 18 18 18 18 18 18 18 18 17 17 17 18 18 17 17 17 17 17 17 17 17 17 17 17 17 17 16
17 17 17 17 17 17 17 17 17 18 18 18 18 18 18 18 18 18 18 18 18 18 17 17 17 17 17 17 17 17 17 17 17 17 17 17 17 17 17 17 17 17 16
17 17 17 17 17 17 17 17 17 17 17 17 18 18 18 18 18 18 18 18 18 18 17 17 17 17 17 17 17 17 17 17 17 17 17 17 17 17 17 17 16 16 16
17 17 17 17 17 17 17 17 17 17 17 17 17 17 17 18 18 18 18 18 18 18 17 17 17 17 17 17 17 17 17 17 17 17 17 17 17 16 16 16 16 16 16
17 17 17 17 17 17 17 17 17 17 17 17 17 17 17 17 17 17 18 18 18 17 17 17 17 17 17 17 17 17 17 17 17 17 17 17 17 16 16 16 16 16 16
17 17 17 17 17 17 17 17 17 17 17 17 17 17 17 17 17 17 17 17 17 17 17 17 17 17 17 17 17 17 17 17 17 17 16 16 16 16 16 16 16 16 16
17 17 17 17 17 16 16 16 16 16 16 17 17 17 17 17 17 17 17 17 17 17 17 17 17 17 17 16 16 16 17 17 17 17 16 16 16 16 16 16 16 16 16
17 17 17 17 16 16 16 16 16 16 16 16 16 16 17 16 17 17 17 17 17 17 17 17 17 17 16 16 16 16 16 16 16 16 16 16 16 16 16 16 15 15 15
17 17 17 17 16 16 16 16 16 16 16 16 16 16 16 16 16 16 17 16 16 17 17 17 17 17 17 16 16 16 16 16 16 16 16 16 16 16 15 15 15 15 15
17 17 17 17 16 16 16 16 16 16 16 16 16 16 16 16 16 16 16 16 16 16 16 17 16 17 16 16 16 16 16 16 16 16 16 16 16 15 15 15 15 15 15
17 17 16 16 16 16 16 16 15 15 15 15 16 16 16 16 16 16 16 16 16 16 16 16 16 16 16 16 16 16 16 16 15 15 16 15 15 15 15 15 15 15 14
17 16 16 16 16 16 16 16 15 15 15 15 15 15 15 15 16 15 16 16 16 16 16 16 16 16 16 16 15 15 15 15 15 15 15 15 15 15 15 15 14 14 14
17 16 16 16 16 16 15 15 15 15 15 15 15 15 15 15 15 15 15 15 15 15 15 15 15 15 15 15 15 15 15 15 15 15 15 15 15 15 14 14 14 14 14
17 16 16 16 16 16 15 15 15 15 15 15 15 15 15 15 15 15 15 15 15 15 15 15 15 15 15 15 15 15 15 15 15 15 15 14 14 14 14 14 14 14 14
17 16 16 16 16 15 15 15 15 15 15 15 15 15 15 15 15 15 15 15 15 15 15 15 15 15 15 15 15 14 14 14 14 14 14 14 14 14 14 14 13 13 13
16 16 16 16 15 15 15 15 15 15 15 15 15 14 14 14 14 14 14 14 14 14 15 14 14 14 14 14 14 14 14 14 14 14 14 14 14 13 13 13 13 13 13
16 16 16 15 15 15 15 15 15 15 15 14 14 14 14 14 14 14 14 14 14 14 14 14 14 14 14 14 14 14 14 14 13 13 13 13 13 13 13 13 13 13 13
16 16 15 15 15 15 15 15 15 15 14 14 14 14 14 14 14 14 14 14 14 14 14 14 14 14 14 14 14 14 14 14 13 13 13 13 13 13 13 13 13 13 13
16 16 15 15 15 15 15 15 15 14 14 14 14 14 14 14 14 14 14 14 14 14 14 14 14 14 14 14 14 13 13 13 13 13 13 12 12 12 12 12 12 12 12
16 15 15 15 15 15 15 14 14 14 14 14 14 14 14 14 14 13 13 13 13 13 13 13 13 13 13 13 13 13 13 13 13 12 12 12 12 12 12 12 12 12 12
16 15 15 15 14 14 14 14 14 14 14 13 13 13 13 13 13 13 13 13 13 13 13 13 13 13 13 13 13 13 13 12 12 12 12 12 12 12 12 12 12 12 12
Wind_Speed
0 1 1 0 1 2 2 2 3 3 2 3 4 4 4 3 3 3 7 12 13 13 13 13 13 12 12 12 11 12 12 12 12 12 13 13 12 12 12 11 11 10 10
1 1 1 1 1 2 3 3 3 3 3 3 4 3 3 4 3 3 7 11 13 13 13 13 13 12 12 12 12 12 12 12 13 13 13 13 13 13 12 12 11 11 10
1 0 1 1 1 3 3 2 2 2 3 3 3 3 3 3 3 3 4 7 9 12 13 13 13 13 12 12 12 12 12 13 13 14 13 13 13 13 13 12 12 11 11
0 1 1 1 2 2 2 1 1 2 2 2 2 3 2 3 4 4 4 6 7 8 11 12 12 12 12 12 11 11 11 12 12 13 14 14 14 13 13 13 13 12 12
1 1 1 1 2 1 1 2 0 1 2 2 3 3 3 3 4 5 5 6 7 7 8 11 13 13 12 12 11 11 11 12 12 12 13 14 14 13 13 13 13 13 13
0 1 1 1 2 1 1 2 2 1 2 2 3 2 2 3 3 3 4 4 6 8 9 9 11 11 11 11 11 11 11 11 12 12 12 13 13 13 13 13 12 12 12
0 1 2 1 1 1 1 2 2 2 1 1 2 2 2 3 3 3 3 2 4 6 8 8 9 9 9 12 11 10 10 10 11 11 12 12 12 12 13 13 12 12 12
1 0 1 2 1 0 2 2 1 2 2 1 1 1 1 1 2 3 3 3 3 2 4 7 8 9 8 8 10 11 11 10 10 11 12 12 12 11 11 11 11 11 11
1 1 1 2 2 1 1 1 1 1 1 1 1 1 1 1 1 1 1 2 2 2 2 3 6 7 9 8 7 10 11 10 10 10 11 11 11 11 12 11 11 11 11
0 1 1 1 2 2 1 1 0 1 1 2 1 1 1 0 0 1 1 0 1 3 3 3 3 5 7 8 8 9 11 11 10 10 11 11 12 11 12 11 11 11 11
1 0 0 1 1 1 1 2 1 1 0 1 2 1 1 1 1 1 1 1 1 1 2 2 1 3 6 7 8 9 12 11 10 10 11 12 12 11 12 12 11 11 10
1 0 0 1 1 1 1 1 1 1 1 1 2 3 1 1 1 1 1 2 2 2 2 2 2 2 4 5 7 10 13 12 11 10 10 11 12 12 11 11 10 10 10
1 0 1 0 1 1 1 1 1 1 2 1 1 2 2 2 1 1 1 2 1 1 2 2 2 2 3 5 6 9 11 12 12 11 10 11 12 13 12 11 10 9 10
1 1 0 0 1 1 2 1 2 2 1 2 3 2 2 2 2 1 1 1 1 2 2 2 1 1 3 5 7 10 9 12 12 12 11 11 12 13 12 11 10 9 9
0 1 0 0 0 1 2 2 2 2 1 2 2 2 2 3 3 2 2 2 2 2 2 1 1 1 2 4 7 7 8 11 12 12 12 12 12 13 12 12 11 10 10
1 1 1 0 0 0 1 2 2 2 2 2 2 2 2 3 3 2 2 2 2 2 2 1 0 1 1 2 5 6 6 11 12 12 12 12 11 12 12 11 11 11 11
1 1 1 1 1 1 1 1 2 2 2 3 3 2 2 3 3 3 3 2 2 2 2 1 0 0 1 1 3 4 7 8 9 12 13 13 13 12 12 11 11 11 11
0 0 1 1 1 1 1 1 2 2 2 3 2 2 2 2 2 3 3 3 2 1 1 1 1 1 0 1 3 3 3 5 6 10 13 13 13 13 13 12 12 12 11
0 0 0 1 2 2 2 1 2 3 3 2 2 1 2 2 2 2 2 2 2 2 0 1 1 0 1 1 2 2 1 2 4 7 11 12 12 13 13 13 12 12 12
1 0 1 1 1 1 2 2 2 3 3 2 2 1 1 1 1 2 2 1 1 1 1 0 1 1 1 1 2 2 2 2 2 3 6 9 11 12 12 12 12 12 12
1 1 1 1 2 1 2 3 3 3 2 2 2 2 1 2 3 2 2 2 1 0 0 0 1 1 0 1 1 1 2 2 2 2 3 4 6 6 8 10 11 11 12
1 1 1 2 2 1 2 2 3 3 2 2 2 2 1 1 2 3 2 3 2 0 1 1 0 0 0 0 1 1 2 2 1 2 3 3 4 5 6 8 11 13 13
1 1 2 1 0 1 3 3 3 2 2 2 2 2 2 2 2 1 1 1 2 1 0 0 0 1 1 0 1 1 1 2 1 2 2 2 3 4 4 8 12 14 14
1 1 2 1 0 1 2 2 4 2 1 1 1 1 1 2 3 1 1 0 0 0 2 2 1 1 0 0 1 1 2 1 1 2 3 2 3 3 4 6 13 15 15
2 2 1 1 0 0 0 1 2 2 1 1 1 1 1 1 2 2 1 1 1 1 1 1 2 2 2 1 1 1 1 2 1 2 2 2 2 2 2 3 8 15 15
2 2 1 1 1 1 2 1 0 2 2 1 1 1 2 1 1 1 1 2 2 2 3 1 1 2 3 3 4 3 3 3 2 2 2 2 2 1 1 2 3 7 9
Wind_Direction
359 12 35 64 253 235 196 220 238 236 234 228 223 220 225 231 235 181 165 171 176 180 186 192 198 201 202 205 208 209 209 209 209 207 206 202 202 204 203 205 203 202 201
31 9 354 307 303 272 239 232 233 219 219 224 229 225 229 231 229 189 168 179 184 185 188 193 197 201 204 207 210 212 212 211 210 207 206 204 204 204 204 206 202 199 199
64 352 275 256 282 270 259 242 247 236 227 225 217 213 214 221 226 213 187 174 184 193 196 198 200 203 207 210 212 211 210 209 209 207 206 203 205 206 206 204 202 202 201
38 328 298 314 298 285 301 251 265 251 240 234 216 219 213 195 202 200 199 193 187 189 198 199 203 204 206 208 209 208 206 207 208 207 204 204 205 206 206 203 204 203 202
295 290 328 329 300 302 306 299 308 270 271 264 227 206 211 202 203 210 203 196 185 178 181 193 203 206 207 209 210 210 207 206 205 205 206 207 206 208 207 206 207 207 207
287 312 341 336 316 330 337 324 303 264 263 267 271 227 214 211 206 209 218 197 184 187 187 184 191 202 204 204 207 209 209 206 204 206 207 209 209 207 205 204 205 205 206
326 357 337 330 332 350 323 319 314 294 264 267 290 278 243 221 202 206 214 203 190 185 177 179 185 190 196 206 208 206 205 205 202 203 204 206 208 207 205 205 205 204 204
278 290 294 300 338 340 317 304 301 310 300 219 225 289 270 233 240 218 195 200 201 188 177 184 188 187 186 184 201 204 205 204 205 205 206 207 206 203 202 202 202 200 201
211 311 350 335 327 303 269 269 283 294 301 294 225 197 244 255 287 247 217 186 187 184 190 174 177 175 180 176 178 193 199 200 202 204 205 203 201 199 197 198 198 196 196
248 307 345 325 323 325 328 298 102 298 308 299 279 219 220 155 235 284 301 252 204 190 199 196 174 168 170 164 169 176 189 196 199 203 200 199 199 196 195 197 198 198 197
217 298 8 322 314 315 344 344 8 347 354 306 296 296 245 231 243 230 253 249 263 220 191 194 169 161 166 171 172 177 182 190 194 198 199 198 196 194 195 198 199 202 201
177 228 151 326 314 331 346 312 308 309 321 311 308 308 294 270 239 247 255 240 236 249 226 186 183 172 181 181 183 178 181 186 189 192 194 195 193 192 191 195 199 203 203
130 54 32 316 301 322 325 339 317 306 317 314 291 298 309 303 288 271 261 259 246 238 228 197 191 167 173 164 171 175 179 182 184 187 191 193 191 188 188 190 193 198 203
32 99 85 112 351 343 333 350 323 303 323 306 294 298 291 289 297 273 251 258 260 244 219 200 163 146 146 150 164 170 174 180 185 187 188 188 185 183 185 187 189 194 197
106 89 66 99 297 315 329 329 304 309 317 288 294 298 287 290 279 271 251 225 219 246 236 202 150 137 132 138 159 172 169 183 188 188 187 187 185 184 184 187 190 191 190
12 54 26 343 304 306 301 296 297 300 304 300 286 309 305 301 306 286 272 258 247 244 253 227 191 108 109 142 156 168 164 171 185 186 187 187 186 185 184 185 188 187 187
12 14 314 321 311 302 284 283 289 296 299 300 299 300 302 307 322 318 305 288 268 260 245 256 278 73 129 109 137 169 168 169 177 186 186 185 183 180 179 179 179 177 178
243 192 290 321 319 323 315 308 302 310 305 303 307 316 312 301 294 301 315 313 312 288 224 238 269 324 50 158 154 173 171 175 164 178 180 180 179 177 176 177 177 175 175
207 287 304 309 320 326 332 321 307 307 305 311 314 318 319 327 318 308 303 313 313 307 281 170 261 320 231 189 135 141 134 132 166 162 170 175 175 174 174 176 178 177 176
185 234 292 282 295 318 344 331 318 311 310 316 320 315 325 339 321 316 301 306 320 348 356 123 208 209 217 175 152 154 158 168 174 171 162 170 175 175 174 175 180 183 185
213 193 242 277 277 261 345 342 317 312 321 325 327 336 4 48 52 29 344 3 358 359 313 229 204 166 178 118 184 182 155 156 170 175 156 161 161 169 178 183 185 184 186
263 251 248 268 297 321 352 355 332 320 333 330 336 340 353 77 72 65 45 40 50 17 340 348 349 271 259 174 154 192 173 183 209 178 158 172 158 167 174 184 185 186 189
233 264 278 279 38 12 352 345 332 309 337 331 341 346 330 6 66 82 49 41 47 14 344 223 290 298 278 231 165 198 199 191 207 181 165 186 173 173 174 187 182 185 190
229 251 261 253 264 8 17 356 333 289 301 315 339 346 360 17 360 17 297 190 163 285 244 226 201 259 304 24 246 215 197 184 205 199 179 189 191 191 189 174 185 188 193
244 253 236 214 218 58 106 352 345 299 290 294 281 2 360 19 350 350 314 302 281 285 270 189 181 196 192 214 225 199 206 177 207 213 191 184 194 183 179 185 187 192 195
229 234 203 196 206 196 174 173 352 300 293 285 225 145 79 29 327 328 303 299 300 309 318 317 257 234 223 214 208 205 211 210 207 213 192 175 190 185 200 197 175 185 197
Height
1532 1532 1532 1532 1533 1533 1533 1533 1533 1534 1535 1535 1536 1538 1538 1540 1540 1541 1541 1542 1542 1543 1544 1545 1546 1547 1549 1550 1551 1553 1554 1555 1556 1558 1559 1561 1563 1565 1566 1568 1569 1571 1572
1531 1531 1531 1531 1532 1532 1532 1532 1532 1533 1533 1534 1535 1536 1537 1538 1539 1539 1539 1540 1540 1541 1542 1543 1544 1545 1546 1548 1549 1550 1552 1553 1555 1556 1558 1559 1561 1563 1564 1566 1568 1569 1570
1530 1530 1530 1530 1531 1531 1531 1531 1531 1531 1532 1532 1533 1534 1535 1535 1536 1537 1537 1538 1538 1539 1539 1540 1542 1543 1544 1545 1547 1548 1549 1551 1552 1554 1556 1557 1559 1561 1562 1564 1565 1567 1568
1529 1529 1529 1530 1530 1530 1530 1530 1529 1530 1530 1531 1531 1532 1533 1534 1534 1535 1535 1536 1536 1537 1537 1538 1539 1540 1541 1543 1544 1546 1547 1548 1550 1552 1553 1555 1557 1558 1560 1562 1563 1565 1566
1529 1529 1529 1529 1529 1529 1528 1528 1528 1528 1528 1529 1530 1530 1531 1532 1532 1533 1534 1534 1534 1535 1535 1536 1537 1538 1539 1540 1541 1543 1544 1546 1548 1549 1551 1552 1554 1556 1557 1559 1561 1562 1564
1528 1528 1528 1528 1528 1528 1527 1527 1526 1527 1527 1528 1528 1529 1529 1530 1530 1531 1532 1533 1533 1533 1534 1534 1535 1535 1537 1538 1539 1540 1541 1543 1545 1546 1548 1550 1551 1553 1555 1557 1558 1560 1562
1528 1527 1527 1527 1527 1526 1526 1526 1525 1526 1526 1527 1527 1528 1528 1529 1529 1529 1530 1531 1531 1532 1532 1532 1533 1533 1534 1535 1537 1538 1539 1540 1542 1543 1545 1547 1549 1550 1552 1554 1555 1557 1559
1527 1527 1526 1526 1526 1525 1525 1524 1524 1524 1525 1526 1526 1526 1527 1528 1527 1528 1528 1529 1530 1531 1531 1531 1532 1532 1532 1533 1534 1535 1536 1538 1539 1541 1542 1544 1545 1547 1549 1550 1552 1554 1556
1526 1526 1525 1525 1525 1524 1524 1523 1523 1523 1524 1524 1524 1525 1526 1526 1526 1527 1527 1527 1528 1529 1529 1529 1529 1530 1530 1531 1532 1533 1534 1535 1536 1538 1539 1541 1542 1544 1546 1548 1549 1551 1553
1525 1525 1525 1524 1524 1523 1523 1523 1522 1522 1522 1523 1523 1524 1525 1524 1525 1525 1526 1526 1527 1527 1527 1528 1528 1528 1529 1529 1529 1530 1531 1532 1534 1535 1536 1538 1539 1541 1543 1544 1546 1548 1549
1525 1524 1524 1523 1523 1522 1522 1521 1521 1521 1521 1521 1522 1522 1523 1523 1523 1524 1524 1525 1525 1525 1526 1526 1527 1527 1527 1527 1527 1528 1529 1530 1531 1532 1533 1535 1536 1538 1540 1541 1543 1545 1546
1524 1524 1523 1522 1522 1521 1521 1521 1520 1520 1520 1520 1520 1521 1521 1521 1521 1522 1522 1522 1523 1523 1524 1524 1524 1525 1524 1525 1525 1525 1526 1527 1528 1529 1531 1532 1533 1535 1537 1538 1540 1541 1543
1523 1523 1522 1521 1521 1521 1520 1520 1520 1519 1519 1519 1519 1519 1519 1519 1520 1520 1520 1520 1521 1521 1522 1522 1522 1523 1523 1522 1523 1523 1524 1525 1526 1527 1528 1529 1531 1532 1534 1536 1537 1538 1540
1523 1522 1522 1521 1520 1520 1520 1519 1519 1518 1518 1517 1518 1517 1517 1517 1517 1518 1518 1518 1518 1519 1520 1520 1520 1521 1521 1520 1520 1520 1521 1522 1523 1525 1526 1527 1528 1529 1531 1533 1534 1536 1537
1522 1521 1521 1520 1520 1519 1519 1518 1517 1517 1517 1516 1516 1516 1516 1516 1515 1515 1515 1516 1517 1517 1517 1518 1518 1518 1518 1518 1518 1519 1519 1520 1521 1522 1523 1524 1525 1527 1528 1530 1531 1533 1534
1521 1520 1520 1519 1519 1518 1518 1517 1516 1516 1515 1515 1514 1514 1513 1513 1513 1513 1514 1514 1514 1515 1515 1514 1515 1516 1516 1516 1516 1516 1517 1518 1519 1519 1520 1521 1522 1524 1525 1527 1528 1530 1531
1520 1519 1519 1518 1518 1517 1517 1516 1515 1515 1514 1513 1512 1512 1511 1511 1511 1511 1511 1512 1512 1512 1512 1513 1513 1514 1514 1514 1514 1514 1515 1516 1516 1517 1518 1519 1520 1521 1523 1524 1525 1526 1528
1518 1518 1517 1517 1516 1516 1515 1515 1514 1513 1512 1511 1511 1510 1510 1510 1509 1509 1509 1509 1510 1510 1510 1510 1510 1511 1511 1511 1512 1512 1513 1514 1514 1515 1516 1517 1518 1519 1520 1521 1522 1524 1526
1517 1517 1516 1515 1515 1514 1514 1513 1513 1512 1511 1510 1509 1508 1508 1507 1507 1507 1507 1507 1508 1508 1508 1508 1508 1508 1509 1509 1510 1510 1511 1511 1512 1512 1513 1514 1515 1517 1518 1519 1520 1521 1523
1516 1515 1515 1514 1514 1513 1512 1512 1511 1510 1509 1508 1508 1507 1506 1506 1505 1505 1505 1505 1506 1506 1506 1506 1506 1507 1507 1508 1508 1508 1508 1509 1509 1510 1511 1511 1513 1514 1515 1517 1518 1519 1521
1515 1514 1514 1513 1512 1512 1511 1510 1510 1509 1508 1507 1506 1506 1505 1505 1504 1503 1503 1503 1504 1504 1504 1504 1505 1505 1505 1505 1506 1506 1506 1507 1508 1508 1508 1509 1510 1511 1512 1514 1516 1517 1518
1513 1513 1512 1512 1511 1511 1510 1509 1508 1508 1507 1506 1505 1505 1504 1503 1502 1502 1502 1502 1502 1502 1502 1503 1503 1503 1503 1503 1504 1504 1505 1505 1505 1506 1506 1507 1507 1508 1510 1511 1513 1514 1516
1511 1511 1511 1511 1510 1509 1509 1508 1507 1506 1505 1504 1503 1503 1503 1502 1501 1501 1500 1500 1500 1500 1501 1501 1500 1501 1501 1501 1502 1502 1502 1503 1503 1503 1504 1504 1506 1506 1508 1509 1510 1511 1513
1510 1509 1509 1508 1508 1507 1507 1506 1506 1505 1504 1503 1502 1502 1501 1500 1500 1499 1499 1498 1498 1498 1498 1498 1499 1499 1499 1499 1499 1500 1500 1500 1501 1502 1502 1502 1503 1504 1506 1507 1508 1509 1511
1508 1508 1507 1507 1506 1505 1505 1505 1504 1503 1503 1502 1501 1500 1499 1499 1498 1498 1497 1497 1497 1497 1497 1496 1496 1496 1496 1497 1497 1497 1498 1498 1498 1499 1500 1500 1501 1502 1503 1504 1505 1507 1508
1506 1506 1506 1505 1505 1504 1503 1503 1502 1501 1501 1500 1500 1498 1498 1497 1497 1496 1496 1495 1495 1495 1495 1494 1494 1494 1494 1494 1494 1494 1495 1495 1495 1496 1497 1497 1498 1499 1500 1501 1502 1504 1505